カタログに戻る

STARLINK-36050

運用中通信VLEO
NORAD 66602·PAYLOAD·🇺🇸 United States

打ち上げ Nov 22, 2025 から Cape Canaveral Space Force Station

Loading…

次のパス (今後24時間)

TLE

最新Source: CelesTrak SupGP

元期: Sep 15, 2026, 03:46 UTC

1 66602C 25270Q   26258.15743056 -.00030921  00000+0 -11187-2 0  2584
2 66602  43.0037  66.4496 0001484 270.2504 291.7710 15.27631199    13

AllMySatでSTARLINK-36050をリアルタイム追跡

Download on the App Store